[[{"header":{"parameterUnit":"m.s-1","parameterCategory":1,"la1":30.2991,"la2":30.254,"lo1":-89.0895,"lo2":-89.0444,"dy":0.0017,"dx":0.0017,"nx":28,"ny":28,"refTime":"2024-12-19T03:00:00:Z","depth":0,"parameterNumber":2,"parameterNumberName":"U-component_of_WINDS"},"data":[0,0,0,0,0,0,0,0,0,0,0,0,0,0,0,0,0,0,0,0,0,0,0,0,0,0,0,0,0,0,0,0,0,0,0,0,0,0,0,0,0,0,0,0,0,0,0,0,0,0,0,0,0,0,0,0,0,0,1.4695,1.4696,0,1.4727,1.4727,1.4727,1.4744,1.4744,1.4744,1.4744,1.4775,1.4776,1.4777,0,0,0,0,0,0,0,0,0,0,0,0,0,1.465,1.4651,1.4695,1.4696,1.4696,1.4727,1.4727,1.4728,1.4744,1.4744,1.4744,1.4744,1.4775,1.4776,1.4777,0,0,0,0,0,0,0,0,0,0,0,0,0,1.4674,1.4651,1.4695,1.4708,1.4709,1.4727,1.4727,1.4728,1.4744,1.4744,1.4744,1.4744,1.4775,1.4776,1.4777,1.4784,0,0,1.4781,1.4782,0,0,0,0,0,0,0,0,1.4673,1.4676,1.4705,1.4707,1.4709,1.4731,1.4723,1.4747,1.4744,1.473,1.4744,1.4744,1.4761,1.4763,1.4769,1.4786,1.4787,1.4781,1.4782,1.4782,1.4783,0,0,0,0,0,0,0,1.4671,1.4675,1.4708,1.4706,1.4708,1.4712,1.4716,1.4727,1.4745,1.4732,1.4733,1.4736,1.4762,1.4768,1.477,1.4788,1.4781,1.4782,1.4783,1.4784,1.4814,1.4814,0,0,0,0,0,0,1.4668,1.4673,1.4707,1.4709,1.469,1.4713,1.4717,1.4724,1.4745,1.4748,1.4736,1.4737,1.4766,1.4768,1.4771,1.4782,1.4782,1.4784,1.4784,1.4814,1.4814,1.4814,0,0,0,0,0,0,1.4666,1.467,1.4705,1.4691,1.4696,1.4714,1.4722,1.4725,1.4731,1.4749,1.4752,1.4739,1.4766,1.4769,1.4781,1.4783,1.4784,1.4785,1.4814,1.4814,1.4814,1.4802,0,0,0,0,0,0,1.4665,1.467,1.4672,1.4691,1.4697,1.4715,1.4722,1.4725,1.4733,1.4734,1.4752,1.4755,1.4766,1.4779,1.4783,1.4785,1.4786,1.4814,1.4814,1.4814,1.4803,1.4802,1.4802,0,0,0,0,0,1.4663,1.4667,1.4672,1.4676,1.47,1.4715,1.4718,1.473,1.4733,1.4736,1.4748,1.4755,1.4783,1.4781,1.4784,1.4787,1.4814,1.4814,1.4814,1.4803,1.4802,1.4802,0,0,0,0,0,0,1.4647,1.467,1.4676,1.4686,1.4698,1.4717,1.4721,1.4729,1.4741,1.4741,1.4756,1.476,1.4772,1.4781,1.4778,1.4796,1.4799,1.48,1.4789,1.4789,1.4788,1.4785,1.4787,0,0,0,0,0,1.4645,1.4655,1.4674,1.4681,1.4687,1.4703,1.471,1.4719,1.4732,1.4738,1.475,1.4763,1.4775,1.4783,1.4794,1.4805,1.4809,1.4808,1.4808,1.4807,1.4808,1.4815,1.4815,1.4815,1.4815,1.4815,0,0,1.464,1.4653,1.4658,1.4678,1.4689,1.4699,1.4707,1.4718,1.4726,1.4739,1.4752,1.4762,1.4777,1.4789,1.4795,1.4797,1.4809,1.4807,1.4807,1.4807,1.4815,1.4815,1.4815,1.4815,1.4815,1.4815,0,0,1.4636,1.4647,1.4654,1.4666,1.4682,1.4694,1.4695,1.4714,1.4721,1.4734,1.4745,1.4756,1.4775,1.4786,1.4795,1.4798,1.4805,1.4801,1.4798,1.4805,1.4805,1.4805,1.4807,1.4807,1.4802,1.4802,1.4802,0,1.4627,1.4643,1.4657,1.4668,1.4676,1.469,1.4699,1.4709,1.4728,1.4734,1.4737,1.4763,1.4774,1.4789,1.4791,1.4797,1.48,1.4799,1.4804,1.4804,1.4805,1.4806,1.4807,1.4801,1.4801,1.4801,1.4801,0,1.4632,1.4643,1.4648,1.4667,1.4676,1.4685,1.4702,1.471,1.4718,1.473,1.4744,1.4758,1.4774,1.4778,1.4786,1.4795,1.4796,1.4801,1.4804,1.4804,1.4806,1.4807,1.4801,1.4801,1.4801,1.4801,0,0,1.4617,1.4646,1.4647,1.4657,1.4677,1.4686,1.4697,1.4713,1.472,1.4734,1.4743,1.4761,1.4766,1.4776,1.4786,1.4792,1.4795,1.4796,1.4797,1.4796,1.4806,1.4802,1.4803,1.48,1.48,1.4801,1.4805,0,1.4616,1.4635,1.4649,1.4663,1.4675,1.4689,1.4699,1.4713,1.4724,1.4735,1.4748,1.4761,1.4766,1.4772,1.478,1.4793,1.4797,1.4793,1.481,1.481,1.4805,1.4804,1.4799,1.4803,1.4806,1.4806,1.4806,0,1.4617,1.4631,1.4646,1.4667,1.4673,1.4681,1.4697,1.4708,1.4725,1.4733,1.4745,1.4755,1.4768,1.4772,1.479,1.4787,1.4795,1.4803,1.4803,1.4805,1.4807,1.4805,1.4804,1.4804,1.4808,1.4807,1.4807,0,1.4604,1.4627,1.464,1.4648,1.4673,1.4678,1.4689,1.4706,1.4715,1.473,1.4737,1.4753,1.4762,1.4774,1.4789,1.479,1.4807,1.4811,1.4814,1.4813,1.4816,1.4815,1.4815,1.4821,1.4821,1.4821,1.4821,0,1.4602,1.461,1.4635,1.4642,1.4653,1.4671,1.4681,1.4693,1.4709,1.4719,1.4733,1.4743,1.4763,1.4775,1.4788,1.4801,1.4805,1.4812,1.4815,1.4811,1.481,1.4816,1.4816,1.4822,1.4822,1.4822,1.4821,0,1.4589,1.4606,1.462,1.4644,1.465,1.4657,1.4677,1.4685,1.4698,1.4712,1.4716,1.4737,1.4752,1.4769,1.479,1.4799,1.4812,1.4816,1.4806,1.4808,1.481,1.481,1.4814,1.4816,1.482,1.482,1.482,0,1.4586,1.4593,1.4618,1.4626,1.4636,1.465,1.466,1.4678,1.4688,1.4709,1.4715,1.4732,1.4747,1.4771,1.4788,1.4805,1.481,1.481,1.4812,1.4808,1.481,1.4809,1.4811,1.4809,1.4809,1.4809,1.4809,0,1.4578,1.4587,1.4601,1.4618,1.463,1.4644,1.4659,1.4666,1.4687,1.4698,1.4714,1.4726,1.4748,1.4765,1.4785,1.4796,1.4806,1.4809,1.481,1.4805,1.4799,1.4803,1.4804,1.4808,1.4808,1.4808,1.4808,1.4808,1.457,1.4578,1.4597,1.4613,1.4626,1.4641,1.465,1.4665,1.4679,1.4699,1.4709,1.4726,1.4745,1.4772,1.4784,1.4798,1.4801,1.4803,1.4803,1.4804,1.4803,1.4798,1.4801,1.4801,1.4802,1.4802,1.4802,0,1.4564,1.4577,1.4592,1.4613,1.4626,1.4635,1.4653,1.4663,1.4677,1.4694,1.4709,1.4729,1.4746,1.4765,1.4784,1.4791,1.4797,1.4796,1.4795,1.4798,1.4799,1.4796,1.4791,1.4791,1.4791,1.4791,1.4791,1.4791,1.4562,1.4576,1.4587,1.4609,1.4622,1.4639,1.4649,1.4662,1.4676,1.4698,1.4712,1.4725,1.4743,1.4764,1.478,1.4786,1.4792,1.479,1.4796,1.4797,1.4798,1.4798,1.4795,1.4791,1.4791,1.4794,1.4794,1.4794]},{"header":{"parameterUnit":"m.s-1","parameterCategory":1,"la1":30.2991,"la2":30.254,"lo1":-89.0895,"lo2":-89.0444,"dy":0.0017,"dx":0.0017,"nx":28,"ny":28,"refTime":"2024-12-19T03:00:00:Z","depth":0,"parameterNumber":3,"parameterNumberName":"V-component_of_WINDS"},"data":[0,0,0,0,0,0,0,0,0,0,0,0,0,0,0,0,0,0,0,0,0,0,0,0,0,0,0,0,0,0,0,0,0,0,0,0,0,0,0,0,0,0,0,0,0,0,0,0,0,0,0,0,0,0,0,0,0,0,-3.1827,-3.1828,0,-3.1985,-3.1987,-3.1989,-3.2031,-3.203,-3.2029,-3.2028,-3.2185,-3.219,-3.2195,0,0,0,0,0,0,0,0,0,0,0,0,0,-3.1558,-3.1563,-3.1827,-3.1829,-3.1831,-3.1985,-3.1987,-3.1989,-3.2031,-3.203,-3.2029,-3.2028,-3.2183,-3.2189,-3.2195,0,0,0,0,0,0,0,0,0,0,0,0,0,-3.1691,-3.1565,-3.1826,-3.187,-3.1876,-3.1984,-3.1987,-3.199,-3.2031,-3.203,-3.2029,-3.2027,-3.2181,-3.2189,-3.2196,-3.2271,0,0,-3.2219,-3.2222,0,0,0,0,0,0,0,0,-3.1684,-3.1701,-3.1862,-3.1867,-3.1874,-3.1987,-3.195,-3.2084,-3.2032,-3.1972,-3.2028,-3.2027,-3.212,-3.2132,-3.2165,-3.2278,-3.2285,-3.222,-3.2224,-3.2228,-3.223,0,0,0,0,0,0,0,-3.1675,-3.1695,-3.1889,-3.1864,-3.1871,-3.1881,-3.1899,-3.1975,-3.2052,-3.1977,-3.1981,-3.1999,-3.2123,-3.2158,-3.2169,-3.2287,-3.222,-3.2226,-3.2231,-3.2234,-3.2473,-3.2474,0,0,0,0,0,0,-3.1658,-3.1687,-3.1884,-3.1894,-3.1774,-3.1887,-3.1907,-3.1952,-3.2051,-3.2065,-3.2,-3.2001,-3.2145,-3.216,-3.2175,-3.2271,-3.2228,-3.2235,-3.2239,-3.2471,-3.2473,-3.2475,0,0,0,0,0,0,-3.1652,-3.1675,-3.1878,-3.1792,-3.1818,-3.1894,-3.1944,-3.1956,-3.1991,-3.2068,-3.2082,-3.2022,-3.2145,-3.2164,-3.2248,-3.2277,-3.2238,-3.2245,-3.2469,-3.2472,-3.2474,-3.2462,0,0,0,0,0,0,-3.1644,-3.1673,-3.1702,-3.1792,-3.1822,-3.1949,-3.1946,-3.196,-3.2004,-3.2006,-3.2092,-3.2105,-3.2145,-3.2236,-3.2255,-3.2286,-3.2251,-3.2466,-3.247,-3.2473,-3.246,-3.2464,-3.2467,0,0,0,0,0,-3.1635,-3.1691,-3.1704,-3.1727,-3.1861,-3.195,-3.1968,-3.2014,-3.2006,-3.2037,-3.2087,-3.2102,-3.2271,-3.2244,-3.2266,-3.23,-3.2465,-3.2469,-3.2473,-3.2459,-3.2463,-3.2467,0,0,0,0,0,0,-3.16,-3.1703,-3.1718,-3.1805,-3.1869,-3.1957,-3.1996,-3.2017,-3.2083,-3.2082,-3.2135,-3.2154,-3.2235,-3.2276,-3.2245,-3.2379,-3.2368,-3.2376,-3.2349,-3.2355,-3.2358,-3.2347,-3.2257,0,0,0,0,0,-3.1602,-3.1668,-3.1754,-3.1822,-3.1854,-3.192,-3.196,-3.1991,-3.2059,-3.2085,-3.2141,-3.2205,-3.2273,-3.2316,-3.2382,-3.2467,-3.2487,-3.2501,-3.2504,-3.2507,-3.2514,-3.2564,-3.2572,-3.2488,-3.2488,-3.2488,0,0,-3.1608,-3.1673,-3.171,-3.1817,-3.187,-3.1936,-3.1942,-3.201,-3.206,-3.2095,-3.2179,-3.2222,-3.2297,-3.2383,-3.2423,-3.2419,-3.2542,-3.2512,-3.2514,-3.2519,-3.2569,-3.2577,-3.2584,-3.2491,-3.2491,-3.249,0,0,-3.1652,-3.1707,-3.1772,-3.1826,-3.1908,-3.1952,-3.1967,-3.2054,-3.2085,-3.2171,-3.2199,-3.2258,-3.2373,-3.2426,-3.2468,-3.2537,-3.2554,-3.2557,-3.2575,-3.2624,-3.2631,-3.2637,-3.2664,-3.2672,-3.2563,-3.2563,-3.2563,0,-3.1648,-3.175,-3.1801,-3.1871,-3.1918,-3.1956,-3.2022,-3.2071,-3.2169,-3.22,-3.2196,-3.2343,-3.2396,-3.2495,-3.2513,-3.2545,-3.2565,-3.2547,-3.2626,-3.2633,-3.2639,-3.2665,-3.2675,-3.2563,-3.2563,-3.2563,-3.2563,0,-3.1742,-3.1813,-3.1855,-3.1953,-3.2004,-3.2071,-3.2133,-3.2179,-3.2206,-3.2251,-3.2339,-3.2404,-3.2486,-3.2512,-3.2537,-3.2616,-3.2612,-3.2616,-3.2605,-3.2646,-3.2672,-3.2682,-3.2563,-3.2563,-3.2563,-3.2563,0,0,-3.1766,-3.1895,-3.1909,-3.1956,-3.205,-3.2106,-3.2175,-3.2258,-3.2297,-3.2364,-3.2424,-3.2523,-3.2529,-3.2576,-3.2609,-3.2651,-3.2705,-3.2651,-3.2653,-3.266,-3.2798,-3.2795,-3.2806,-3.2717,-3.2719,-3.2721,-3.2793,0,-3.1823,-3.1951,-3.2001,-3.2105,-3.2172,-3.2211,-3.2272,-3.2336,-3.2381,-3.2444,-3.2492,-3.2562,-3.2563,-3.2593,-3.2637,-3.2689,-3.2734,-3.2684,-3.2774,-3.2776,-3.2755,-3.2819,-3.2815,-3.288,-3.2803,-3.2804,-3.2806,0,-3.1906,-3.1978,-3.2089,-3.218,-3.221,-3.2264,-3.2346,-3.2405,-3.248,-3.2509,-3.2565,-3.2596,-3.2671,-3.2656,-3.2761,-3.2726,-3.2766,-3.2797,-3.2801,-3.2811,-3.2794,-3.2832,-3.2901,-3.2911,-3.2821,-3.282,-3.2819,0,-3.1914,-3.2039,-3.2122,-3.2161,-3.2267,-3.2305,-3.2351,-3.2425,-3.2473,-3.2544,-3.2576,-3.2653,-3.2696,-3.2755,-3.2806,-3.2791,-3.2907,-3.2896,-3.2934,-3.2932,-3.2956,-3.2954,-3.3033,-3.298,-3.298,-3.298,-3.2979,0,-3.1973,-3.204,-3.2128,-3.218,-3.2257,-3.2314,-3.2388,-3.2437,-3.2503,-3.2564,-3.2602,-3.2658,-3.2722,-3.2787,-3.2828,-3.2909,-3.2928,-3.2954,-3.2964,-3.2951,-3.2948,-3.2978,-3.2975,-3.2982,-3.2982,-3.2981,-3.2981,0,-3.1995,-3.2056,-3.2151,-3.2246,-3.2272,-3.2324,-3.2406,-3.2457,-3.2505,-3.2583,-3.2604,-3.2679,-3.2758,-3.2815,-3.2916,-3.2943,-3.3031,-3.304,-3.3007,-3.3012,-3.3047,-3.3044,-3.3149,-3.3167,-3.31,-3.3101,-3.3101,0,-3.2028,-3.2081,-3.2184,-3.223,-3.2277,-3.2348,-3.2399,-3.2458,-3.2509,-3.2601,-3.2641,-3.2724,-3.2793,-3.2917,-3.2979,-3.3057,-3.307,-3.3102,-3.3081,-3.3068,-3.3072,-3.3069,-3.3075,-3.3104,-3.3104,-3.3105,-3.3105,0,-3.2082,-3.2111,-3.2183,-3.2268,-3.2328,-3.2396,-3.2464,-3.2499,-3.2571,-3.2626,-3.2709,-3.2763,-3.2869,-3.295,-3.3035,-3.3082,-3.3106,-3.3112,-3.3125,-3.3112,-3.3091,-3.3105,-3.3016,-3.3108,-3.3108,-3.3108,-3.3108,-3.3108,-3.2112,-3.2162,-3.2244,-3.2324,-3.2383,-3.2447,-3.2502,-3.2559,-3.263,-3.2722,-3.2753,-3.2839,-3.2915,-3.3033,-3.3081,-3.3149,-3.3148,-3.3166,-3.3171,-3.3175,-3.3176,-3.3081,-3.3164,-3.3164,-3.3164,-3.3164,-3.3164,0,-3.2169,-3.2224,-3.2298,-3.2395,-3.2459,-3.2479,-3.2557,-3.2609,-3.2685,-3.2756,-3.2824,-3.2921,-3.3002,-3.3072,-3.3156,-3.3197,-3.321,-3.3217,-3.3214,-3.3225,-3.3171,-3.3152,-3.3205,-3.3205,-3.3205,-3.3205,-3.3205,-3.3205,-3.2206,-3.2294,-3.2333,-3.2451,-3.2506,-3.2593,-3.2637,-3.2697,-3.2754,-3.2862,-3.293,-3.2976,-3.3047,-3.3137,-3.3212,-3.3231,-3.326,-3.3265,-3.3286,-3.3233,-3.3229,-3.3224,-3.3207,-3.327,-3.327,-3.3335,-3.3336,-3.3336]}]]